logo tempoitalia

Diretta Meteo Red Oak, Stati Uniti (USA)lunedì 31 agosto ore 01:35

Mappa
Sereno 22 °C Foschia 24 Ore: T.min 22 T.max 33
Ponente Nord Km/h 3.7 Punto di rugiada: 22 °C Umidità: 100% Visibilità: 10 Km
Il sole sorge alle: 06:47 Il sole tramonta alle: 19:55
31 Agosto 2026 01:35 tempo osservato: Foschia Foschia 22 100 1010 vento: Nord N 3.7
31 Agosto 2026 01:15 tempo osservato: Foschia Foschia 22 94 1010 vento: Nord N 1.8
31 Agosto 2026 00:55 tempo osservato: Sereno Sereno 23 94 1010 vento: Nord N 0
31 Agosto 2026 00:35 tempo osservato: Sereno Sereno 23 100 1009 vento: Nord N 1.8
31 Agosto 2026 00:15 tempo osservato: Sereno Sereno 24 94 1009 vento: Nord N 1.8
30 Agosto 2026 23:55 tempo osservato: Sereno Sereno 24 100 1009 vento: Nord N 1.8
30 Agosto 2026 23:35 tempo osservato: Sereno Sereno 24 94 1009 vento: Nord N 1.8
30 Agosto 2026 23:15 tempo osservato: Sereno Sereno 24 100 1009 vento: Nord N 0
30 Agosto 2026 22:55 tempo osservato: Sereno Sereno 24 94 1009 vento: Nord N 0
30 Agosto 2026 22:35 tempo osservato: Sereno Sereno 25 94 1010 vento: Nord N 3.7
30 Agosto 2026 22:15 tempo osservato: Sereno Sereno 25 94 1009 vento: Nord N 0
30 Agosto 2026 21:55 tempo osservato: Sereno Sereno 25 94 1009 vento: Nord N 1.8
30 Agosto 2026 21:35 tempo osservato: Sereno Sereno 26 88 1009 vento: Nord N 3.7
30 Agosto 2026 21:15 tempo osservato: Sereno Sereno 26 94 1009 vento: Nord N 3.7
30 Agosto 2026 20:55 tempo osservato: Sereno Sereno 27 88 1009 vento: Nord N 3.7
30 Agosto 2026 20:35 tempo osservato: Sereno Sereno 28 83 1009 vento: Nord N 5.5
30 Agosto 2026 20:15 tempo osservato: Sereno Sereno 29 79 1009 vento: Nord N 1.8
30 Agosto 2026 19:55 tempo osservato: Sereno Sereno 30 74 1008 vento: Nord N 3.7
30 Agosto 2026 19:35 tempo osservato: Sereno Sereno 31 74 1008 vento: Nord N 3.7
30 Agosto 2026 19:15 tempo osservato: Sereno Sereno 32 70 1008 vento: Nord N 1.8
30 Agosto 2026 18:55 tempo osservato: Sereno Sereno 32 70 1008 vento: Nord N 3.7
30 Agosto 2026 18:35 tempo osservato: Sereno Sereno 33 62 1008 vento: Nord N 1.8
30 Agosto 2026 18:15 tempo osservato: Sereno Sereno 33 62 1008 vento: Nord S 9.3
30 Agosto 2026 17:55 tempo osservato: Sereno Sereno 33 62 1008 vento: Nord S/SO 7.4
30 Agosto 2026 17:35 tempo osservato: Sereno Sereno 32 62 1008 vento: Nord SO 7.4
30 Agosto 2026 17:15 tempo osservato: Sereno Sereno 33 59 1008 vento: Nord S 13
30 Agosto 2026 16:55 tempo osservato: Sereno Sereno 33 59 1008 vento: Nord S 16.7
30 Agosto 2026 16:35 tempo osservato: Sereno Sereno 32 59 1008 vento: Nord S 20.3
30 Agosto 2026 16:16 tempo osservato: Sereno Sereno 33 59 1008 vento: Nord S 18.5
30 Agosto 2026 15:55 tempo osservato: Sereno Sereno 33 59 1009 vento: Nord S 11.1
30 Agosto 2026 15:35 tempo osservato: Sereno Sereno 32 62 1009 vento: Nord S/SO 11.1
30 Agosto 2026 15:15 tempo osservato: Sereno Sereno 32 59 1009 vento: Nord S/SO 14.8
30 Agosto 2026 14:55 tempo osservato: Sereno Sereno 32 59 1009 vento: Nord S/SO 18.5
30 Agosto 2026 14:35 tempo osservato: Sereno Sereno 33 52 1009 vento: Nord S/SO 24
30 Agosto 2026 14:15 tempo osservato: Sereno Sereno 32 52 1009 vento: Nord S/SO 25.9
30 Agosto 2026 13:55 tempo osservato: Sereno Sereno 32 52 1009 vento: Nord S/SO 25.9
30 Agosto 2026 13:36 tempo osservato: Sereno Sereno 32 52 1010 vento: Nord S/SO 20.3
30 Agosto 2026 13:15 tempo osservato: Sereno Sereno 31 55 1010 vento: Nord S/SO 27.8
30 Agosto 2026 12:55 tempo osservato: Sereno Sereno 31 55 1010 vento: Nord S 18.5
30 Agosto 2026 12:35 tempo osservato: Sereno Sereno 31 55 1010 vento: Nord S 22.2
30 Agosto 2026 12:15 tempo osservato: Sereno Sereno 30 62 1010 vento: Nord S/SO 16.7
30 Agosto 2026 11:55 tempo osservato: Sereno Sereno 29 62 1011 vento: Nord S 16.7
30 Agosto 2026 11:35 tempo osservato: Sereno Sereno 28 65 1010 vento: Nord S/SE 11.1
30 Agosto 2026 11:15 tempo osservato: Sereno Sereno 28 65 1011 vento: Nord N 9.3
30 Agosto 2026 10:56 tempo osservato: Sereno Sereno 27 69 1011 vento: Nord N 3.7
30 Agosto 2026 10:35 tempo osservato: Sereno Sereno 26 69 1010 vento: Nord S/SE 14.8
30 Agosto 2026 10:15 tempo osservato: Sereno Sereno 26 69 1010 vento: Nord S/SE 16.7
30 Agosto 2026 09:55 tempo osservato: Sereno Sereno 25 73 1010 vento: Nord S 11.1
30 Agosto 2026 09:35 tempo osservato: Sereno Sereno 25 73 1010 vento: Nord S 13
30 Agosto 2026 09:15 tempo osservato: Sereno Sereno 24 78 1010 vento: Nord S 13
30 Agosto 2026 08:55 tempo osservato: Sereno Sereno 24 78 1010 vento: Nord S 9.3
30 Agosto 2026 08:35 tempo osservato: Sereno Sereno 23 83 1010 vento: Nord N 5.5
30 Agosto 2026 08:16 tempo osservato: Sereno Sereno 22 94 1010 vento: Nord S 9.3
30 Agosto 2026 07:55 tempo osservato: Sereno Sereno 22 94 1011 vento: Nord N 5.5
30 Agosto 2026 07:35 tempo osservato: Poco Nuvoloso Poco Nuvoloso 22 94 1011 vento: Nord N 5.5
30 Agosto 2026 07:15 tempo osservato: Nuvoloso Nuvoloso 22 94 1011 vento: Nord N 5.5
30 Agosto 2026 06:55 tempo osservato: Poco Nuvoloso Poco Nuvoloso 23 83 1011 vento: Nord S/SE 7.4
30 Agosto 2026 06:35 tempo osservato: Nuvoloso Nuvoloso 23 83 1011 vento: Nord N 5.5
30 Agosto 2026 06:15 tempo osservato: Pioggia Foschia Pioggia Foschia 23 83 1010 vento: Nord SO 20.3
30 Agosto 2026 05:55 tempo osservato: Coperto Coperto 24 78 1011 vento: Nord O/NO 7.4
30 Agosto 2026 05:35 tempo osservato: Molto Nuvoloso Molto Nuvoloso 24 73 1010 vento: Nord N 5.5
30 Agosto 2026 05:15 tempo osservato: Nuvoloso Nuvoloso 24 73 1010 vento: Nord S 9.3
30 Agosto 2026 04:55 tempo osservato: Poco Nuvoloso Poco Nuvoloso 24 73 1010 vento: Nord N 3.7
30 Agosto 2026 04:35 tempo osservato: Sereno Sereno 24 78 1010 vento: Nord N 3.7
30 Agosto 2026 04:15 tempo osservato: Sereno Sereno 24 78 1010 vento: Nord N 5.5
30 Agosto 2026 03:55 tempo osservato: Sereno Sereno 24 73 1010 vento: Nord S/SO 9.3
30 Agosto 2026 03:35 tempo osservato: Sereno Sereno 25 69 1010 vento: Nord S 9.3
30 Agosto 2026 03:15 tempo osservato: Sereno Sereno 25 69 1010 vento: Nord S/SO 11.1
30 Agosto 2026 02:55 tempo osservato: Sereno Sereno 25 69 1010 vento: Nord S 14.8
30 Agosto 2026 02:35 tempo osservato: Sereno Sereno 25 69 1010 vento: Nord S 16.7
30 Agosto 2026 02:15 tempo osservato: Sereno Sereno 25 69 1010 vento: Nord S 14.8
30 Agosto 2026 01:55 tempo osservato: Sereno Sereno 25 69 1010 vento: Nord S 16.7
30 Agosto 2026 01:35 tempo osservato: Sereno Sereno 25 69 1010 vento: Nord S 18.5